59P/Kearns-Kwee (2018)

Japanese version
Home page
Updated on March 3, 2018

---------------------------------------------------------------------

* Profile

* Pictures

* Orbital Elements

Epoch 2018 Aug. 30.0 TT = JDT 2458360.5
T 2018 Sept. 16.74629 TT                                MPCW
q   2.3587520            (2000.0)            P               Q
n   0.10342166     Peri.  127.69928     +0.15688445     -0.98041948
a   4.4949863      Node   312.82809     +0.84735474     +0.19552611
e   0.4752482      Incl.    9.33933     +0.50732358     -0.02339217
P   9.53
From 886 observations 1998 July 27-2017 Sept. 24, mean residual 0".7.
     Nongravitational parameters A1 = +3.21, A2 = -0.1836.

* Finding Charts

* Magnitudes Graph

        m1 = 7.0 + 5 log d + 20 log r

---------------------------------------------------------------------

The orbital elements are published on M.P.E.C. 2017-T14.
The charts are made with StellaNavigator Ver.10 (AstroArts).
The magnitudes graphs are made with Comet for Windows.

---------------------------------------------------------------------

Copyright(C) Seiichi Yoshida (comet@aerith.net). All rights reserved.